Date,TemperatureHighF,TemperatureAvgF,TemperatureLowF,DewpointHighF,DewpointAvgF,DewpointLowF,HumidityHigh,HumidityAvg,HumidityLow,PressureMaxIn,PressureMinIn,WindSpeedMaxMPH,WindSpeedAvgMPH,GustSpeedMaxMPH,PrecipitationSumIn
2013-1-1,32.5,22.1,12.1,28.7,12.0,4.2,87,65,52,29.95,29.64,25,4,25,0.01
2013-1-2,24.2,14.0,2.2,16.0,6.1,-5.8,78,70,64,30.15,29.92,18,3,18,0.00
2013-1-3,18.6,9.3,0.8,9.1,-1.6,-7.0,78,62,43,30.16,29.99,15,2,15,0.00
2013-1-4,36.4,27.0,12.6,24.8,20.1,7.8,92,76,58,30.00,29.81,21,4,21,0.00
2013-1-5,37.6,30.7,22.3,25.8,20.8,15.9,81,67,48,30.28,29.81,23,3,23,0.03
2013-1-6,39.1,30.1,21.8,29.3,24.4,15.9,92,79,67,30.23,29.94,14,2,14,0.01
2013-1-7,34.4,30.0,23.5,30.4,21.2,12.5,90,70,49,30.42,29.96,14,2,14,0.01
2013-1-8,43.0,32.1,19.7,27.4,22.5,14.0,83,68,50,30.39,30.27,18,4,18,0.01
2013-1-9,41.8,35.5,29.2,33.8,28.0,22.0,84,74,63,30.40,29.97,17,2,18,0.01
2013-1-10,43.3,37.8,29.2,30.4,26.9,24.1,82,65,53,30.56,30.01,27,5,27,0.00
2013-1-11,33.6,31.4,27.9,32.8,28.8,23.5,97,90,81,30.56,30.23,7,0,7,0.01
2013-1-12,39.3,36.2,33.4,38.8,35.7,32.6,99,98,97,30.24,30.14,5,0,5,0.05
2013-1-13,46.7,40.9,35.9,46.7,40.7,35.7,100,99,99,30.17,29.97,16,1,16,0.00
2013-1-14,57.2,44.7,35.0,55.0,39.3,27.0,100,83,50,30.28,29.82,20,2,20,0.00
2013-1-15,40.0,33.4,28.9,28.7,25.6,23.2,86,73,58,30.35,30.24,8,1,14,0.00
2013-1-16,31.5,29.9,28.4,30.0,27.6,23.6,97,91,75,30.27,29.83,3,0,3,0.00
2013-1-17,38.0,30.3,22.4,32.7,24.0,8.5,97,78,51,30.13,29.83,16,2,16,0.05
2013-1-18,22.2,16.0,7.2,10.8,1.7,-4.8,67,53,39,30.45,30.06,13,2,17,0.00
2013-1-19,41.1,31.9,16.2,27.7,20.7,6.8,72,63,52,30.37,29.84,19,4,19,0.06
2013-1-20,47.3,35.3,24.0,32.9,23.3,8.9,86,63,34,29.93,29.53,33,5,33,0.07
2013-1-21,26.6,20.9,15.9,17.7,8.9,0.6,92,61,45,30.10,29.81,17,2,17,0.00
2013-1-22,22.2,16.3,6.2,18.5,9.5,-0.6,100,76,41,30.08,29.78,21,2,21,0.00
2013-1-23,10.6,4.3,-2.4,-0.3,-8.2,-12.3,79,57,36,30.17,30.06,15,2,20,0.00
2013-1-24,15.5,4.8,-4.6,-4.9,-9.5,-13.3,69,52,37,30.26,30.10,31,5,31,0.00
2013-1-25,19.4,11.1,2.3,9.6,-2.9,-6.6,84,54,35,30.33,30.09,29,3,29,0.00
2013-1-26,21.8,13.4,6.8,9.6,2.5,-4.9,88,64,37,30.24,30.04,18,3,20,0.00
2013-1-27,27.0,17.9,10.4,4.5,1.0,-3.4,72,49,30,30.49,30.23,22,4,22,0.00
2013-1-28,23.2,21.8,21.4,20.1,19.6,18.6,93,91,85,30.26,30.06,6,0,6,0.00
2013-1-29,34.4,26.9,18.4,30.6,24.5,16.7,97,91,77,30.24,30.06,7,1,7,0.06
2013-1-30,53.7,40.5,31.4,53.7,40.2,30.6,100,99,97,30.17,29.42,19,2,19,0.18
2013-1-31,57.6,43.1,27.8,57.6,34.5,10.9,100,74,44,29.56,28.89,33,8,33,0.62
2013-2-1,31.3,24.7,18.0,15.8,10.7,5.5,64,55,41,30.08,29.55,24,5,24,0.00
2013-2-2,26.2,20.7,12.9,15.6,7.9,4.2,73,58,47,30.24,30.05,15,2,15,0.00
2013-2-3,28.3,23.0,16.0,19.4,17.1,13.0,90,78,63,30.06,29.74,7,0,7,0.00
2013-2-4,27.8,21.8,16.4,17.9,9.6,3.7,83,60,41,29.93,29.73,22,4,22,0.00
2013-2-5,28.6,19.7,11.6,15.3,8.8,4.6,85,63,45,30.06,29.93,13,1,13,0.00
2013-2-6,35.1,26.3,18.3,25.4,17.4,0.3,93,71,43,30.34,29.95,17,2,17,0.00
2013-2-7,27.3,18.7,10.6,3.3,0.9,-1.3,60,46,34,30.57,30.33,13,2,16,0.00
2013-2-8,21.3,18.0,14.7,16.6,12.7,0.7,92,81,41,30.52,29.80,20,2,20,0.00
2013-2-9,18.8,15.5,11.4,17.1,12.7,5.7,93,89,76,30.24,29.74,28,5,28,0.00
2013-2-10,36.1,21.2,8.7,15.7,6.9,2.4,77,56,32,30.44,30.24,18,2,18,0.24
2013-2-11,32.4,25.0,20.2,31.7,19.8,4.4,98,82,46,30.36,29.65,10,1,10,0.00
2013-2-12,41.9,36.6,32.2,34.5,30.5,28.5,98,79,62,29.85,29.60,22,4,22,0.36
2013-2-13,40.0,33.2,27.2,29.8,24.2,21.1,85,70,52,29.88,29.75,13,1,13,0.09
2013-2-14,43.2,32.7,26.9,27.2,23.1,20.9,80,68,47,30.00,29.74,11,1,11,0.04
2013-2-15,50.3,36.3,25.1,31.9,26.7,21.2,91,69,48,30.00,29.90,22,2,22,0.03
2013-2-16,39.1,32.9,25.4,31.9,24.1,10.1,95,71,54,29.97,29.76,15,1,15,0.02
2013-2-17,25.4,18.5,13.2,13.8,7.5,2.5,88,63,50,29.77,29.41,31,7,31,0.00
2013-2-18,28.8,20.0,11.5,4.5,1.9,-1.1,65,47,31,30.15,29.68,30,6,30,0.00
2013-2-19,40.1,31.3,18.6,38.1,19.2,0.2,97,63,38,30.19,29.58,13,1,13,0.10
2013-2-20,37.2,29.7,23.3,36.4,21.9,15.6,98,73,56,29.77,29.53,23,5,23,0.02
2013-2-21,29.9,23.2,19.9,17.8,14.0,9.9,83,68,55,30.25,29.77,22,5,24,0.00
2013-2-22,40.7,29.7,19.9,25.0,20.7,15.9,91,71,45,30.44,30.25,14,2,14,0.00
2013-2-23,34.4,31.7,29.4,31.9,28.5,23.9,97,88,78,30.35,29.96,11,1,11,0.00
2013-2-24,34.0,32.0,29.7,33.2,31.3,28.9,98,97,96,29.97,29.76,3,0,3,0.00
2013-2-25,40.4,32.6,27.0,38.7,31.2,26.3,98,95,85,30.25,29.92,9,0,9,0.17
2013-2-26,40.7,34.3,31.4,35.7,32.0,29.9,97,91,78,30.36,30.21,9,0,9,0.37
2013-2-27,37.0,33.5,31.5,36.5,32.6,29.9,98,96,89,30.22,29.64,17,1,17,0.40
2013-2-28,43.7,35.5,31.0,39.1,34.1,30.5,98,95,82,29.65,29.56,9,1,9,0.55
2013-3-1,38.1,34.6,30.9,33.6,30.5,28.0,98,85,73,29.71,29.55,13,2,13,0.06
2013-3-2,40.9,34.0,29.2,30.4,27.8,25.7,87,78,65,29.70,29.65,14,2,14,0.00
2013-3-3,38.1,31.5,26.8,32.0,27.3,24.5,92,84,70,29.67,29.59,15,2,15,0.02
2013-3-4,35.1,30.1,26.6,28.2,24.5,21.8,92,80,66,29.81,29.62,20,4,20,0.00
2013-3-5,47.1,34.1,24.9,33.1,27.3,21.0,92,77,53,30.11,29.80,14,2,14,0.01
2013-3-6,36.7,34.1,31.2,33.8,30.8,27.8,100,88,76,30.20,30.09,16,2,16,0.01
2013-3-7,35.6,31.1,29.0,29.5,28.2,25.7,96,89,75,30.18,30.07,18,2,18,0.01
2013-3-8,42.7,33.6,28.8,32.9,28.6,23.6,97,83,66,30.22,30.03,14,2,14,0.21
2013-3-9,57.2,38.5,26.2,29.9,24.2,15.5,92,62,20,30.38,30.20,13,1,13,0.20
2013-3-10,45.9,35.9,27.5,32.1,29.4,26.0,95,79,56,30.44,30.29,13,2,13,0.00
2013-3-11,51.7,39.8,30.3,38.6,33.1,29.3,97,79,46,30.32,30.13,13,2,13,0.00
2013-3-12,50.2,44.5,38.9,50.2,44.1,37.3,100,98,90,30.15,29.73,16,3,17,0.49
2013-3-13,47.6,40.3,33.7,47.0,31.9,22.7,100,74,45,29.80,29.73,16,3,16,0.00
2013-3-14,33.6,28.9,18.6,25.6,18.2,8.0,80,64,53,29.85,29.71,19,4,20,0.00
2013-3-15,37.4,26.0,15.5,29.9,15.4,6.0,94,66,37,29.88,29.64,22,4,22,0.00
2013-3-16,35.9,29.1,22.8,26.7,16.9,13.3,92,61,42,29.91,29.71,14,2,14,0.00
2013-3-17,34.2,25.9,19.0,15.3,11.5,4.3,78,56,36,30.34,29.91,23,3,23,0.00
2013-3-18,35.9,25.4,13.6,23.7,8.0,1.9,79,49,26,30.49,30.25,10,1,10,0.00
2013-3-19,32.4,29.0,23.7,31.4,27.7,22.2,97,95,80,30.26,29.72,10,0,13,0.00
2013-3-20,35.7,28.4,23.0,24.8,22.0,18.0,95,78,58,29.81,29.71,21,2,21,0.08
2013-3-21,42.1,29.9,20.4,21.6,17.8,14.3,86,63,35,29.82,29.62,10,1,10,0.47
2013-3-22,38.9,30.7,22.9,25.7,20.2,14.8,83,66,43,29.74,29.63,16,2,17,0.05
2013-3-23,41.2,32.2,24.7,23.7,21.4,19.0,83,65,49,29.78,29.65,25,5,25,0.01
2013-3-24,47.2,36.7,30.2,28.0,25.2,23.1,77,64,45,29.84,29.76,20,3,20,0.00
2013-3-25,42.2,34.7,26.7,32.0,27.0,22.2,85,74,59,29.81,29.57,11,1,11,0.00
2013-3-26,50.0,39.2,32.0,32.0,26.1,21.8,87,62,36,29.80,29.60,10,2,16,0.00
2013-3-27,51.8,39.5,30.1,33.3,27.3,22.7,89,63,40,29.91,29.78,13,2,19,0.00
2013-3-28,47.4,39.5,33.5,36.8,33.1,29.4,97,79,50,30.05,29.90,14,1,14,0.00
2013-3-29,53.6,43.3,36.1,37.0,33.6,31.1,84,69,49,30.07,30.00,13,2,14,0.00
2013-3-30,53.7,43.0,34.4,32.3,26.0,15.6,85,55,29,30.12,30.02,13,2,13,0.00
2013-3-31,54.4,39.3,31.7,27.3,20.5,15.7,65,48,33,30.14,30.04,14,1,14,0.00
2013-4-2,32.2,30.5,29.6,18.7,16.0,14.2,63,54,49,29.92,29.87,20,5,21,0.29
2013-4-3,43.4,33.7,25.8,21.0,14.0,9.4,73,46,26,30.15,29.91,23,6,23,0.00
2013-4-4,53.8,40.2,27.9,24.4,18.5,14.0,65,43,24,30.31,30.00,19,4,19,0.00
2013-4-5,57.8,45.4,36.4,30.0,26.9,21.6,74,51,26,30.00,29.68,17,4,17,0.00
2013-4-11,37.4,37.4,37.2,32.0,31.7,31.4,81,80,79,30.18,30.15,5,1,5,0.53
2013-4-12,37.7,33.5,31.9,32.8,31.1,28.5,98,91,72,30.23,29.87,10,1,10,0.07
2013-4-13,51.4,40.0,32.6,41.1,36.0,32.1,98,86,63,29.96,29.82,10,1,12,0.58
2013-4-14,51.6,42.5,35.5,38.7,34.0,29.2,94,74,49,30.24,29.93,15,2,18,0.00
2013-4-15,57.7,44.3,32.5,38.0,33.7,29.4,92,68,43,30.40,30.23,12,2,15,0.00
2013-4-16,66.5,50.8,37.8,52.9,43.0,34.1,88,76,50,30.40,30.03,24,5,24,0.00
2013-4-17,63.7,53.9,43.1,53.9,37.2,29.5,94,56,31,30.36,30.04,20,3,20,0.00
2013-4-18,61.4,49.7,35.6,40.9,32.7,27.2,79,53,38,30.47,30.15,21,3,21,0.00
2013-4-19,71.8,61.0,49.6,62.2,55.5,41.1,97,83,65,30.15,29.60,27,5,27,0.09
2013-4-20,63.3,48.8,37.8,62.6,38.3,22.0,98,70,42,30.24,29.60,22,4,22,0.39
2013-4-21,52.4,40.8,31.5,24.8,21.9,19.6,70,48,29,30.71,30.24,17,2,18,0.00
2013-4-22,52.1,40.9,30.0,32.8,27.7,21.2,91,62,35,30.80,30.63,21,1,21,0.00
2013-4-23,39.5,36.1,30.1,38.7,34.8,28.6,97,95,91,30.63,30.19,10,1,10,0.00
2013-4-24,75.8,56.6,39.5,53.1,44.6,38.7,99,70,27,30.19,29.77,18,2,18,0.01
2013-4-25,61.2,53.5,44.3,50.9,36.0,26.4,93,54,30,30.30,29.76,23,4,23,0.02
2013-4-26,61.4,48.6,36.2,36.4,31.8,26.6,71,53,36,30.44,30.30,14,1,14,0.00
2013-4-27,65.7,52.0,37.4,40.4,35.8,32.6,88,57,32,30.44,30.29,10,1,10,0.00
2013-4-28,69.8,54.5,39.2,42.6,38.1,34.7,86,57,33,30.35,30.21,15,2,15,0.00
2013-4-29,69.8,56.7,45.1,46.5,39.2,32.6,69,53,37,30.28,30.17,15,2,15,0.00
2013-4-30,71.2,59.4,48.3,38.3,32.4,24.2,49,37,27,30.37,30.25,13,1,13,0.00
2013-5-1,73.5,58.1,41.6,40.2,33.5,28.4,70,42,23,30.48,30.37,12,1,12,0.00
2013-5-2,80.5,58.2,44.1,46.9,39.2,30.7,75,52,25,30.51,30.34,16,1,16,0.00
2013-5-3,65.8,52.1,38.3,47.7,41.6,35.5,93,69,44,30.56,30.39,10,1,10,0.00
2013-5-4,70.0,53.3,39.7,47.7,41.5,35.0,95,68,34,30.39,30.28,12,1,12,0.00
2013-5-5,68.0,50.9,36.5,42.2,38.5,35.4,97,67,33,30.36,30.24,14,1,14,0.00
2013-5-6,73.0,55.4,38.8,49.6,41.1,32.6,96,65,24,30.30,30.14,12,1,12,0.00
2013-5-7,79.8,64.1,47.4,58.0,49.3,36.7,97,66,22,30.19,30.08,13,1,13,0.00
2013-5-8,72.5,62.9,55.5,63.7,58.3,53.7,97,86,61,30.22,30.05,18,1,18,0.05
2013-5-9,63.9,58.9,55.3,60.2,57.7,55.0,99,96,85,30.06,29.90,6,0,6,0.09
2013-5-10,78.3,65.4,55.1,62.2,57.2,54.7,100,78,47,29.97,29.89,9,0,9,0.01
2013-5-11,66.2,61.2,57.1,63.0,59.6,55.5,99,94,86,29.89,29.69,17,2,17,0.39
2013-5-12,66.2,57.1,46.7,59.7,48.7,28.6,100,76,44,29.81,29.58,15,1,15,0.01
2013-5-13,53.1,45.8,40.0,33.8,31.5,28.8,77,58,43,30.07,29.80,14,2,14,0.00
2013-5-14,57.2,47.2,36.7,36.9,33.0,28.9,92,60,37,30.08,29.99,15,1,15,0.00
2013-5-15,65.3,51.2,39.6,51.9,40.1,31.1,97,69,33,30.07,29.66,18,1,18,0.14
2013-5-16,76.2,62.6,48.1,51.3,45.4,38.8,98,60,29,29.84,29.63,21,2,21,0.00
2013-5-17,66.5,56.0,45.5,44.9,41.9,38.3,83,61,37,30.23,29.83,15,1,15,0.00
2013-5-18,72.2,58.5,46.3,48.8,43.5,36.6,94,61,30,30.32,30.23,10,0,10,0.00
2013-5-19,69.5,55.8,47.6,55.9,50.9,46.2,98,85,58,30.37,30.20,11,0,11,0.14
2013-5-20,77.6,63.9,54.0,66.3,60.1,53.5,100,89,64,30.20,29.94,12,1,12,0.03
2013-5-21,73.8,59.5,49.2,66.9,57.5,48.4,98,93,74,30.08,29.89,8,0,8,0.33
2013-5-22,60.6,53.6,49.8,59.2,53.1,49.2,100,98,94,30.06,29.88,11,0,11,0.78
2013-5-23,70.5,59.8,51.1,69.0,59.5,50.8,100,99,95,29.95,29.78,16,1,16,0.34
2013-5-24,67.4,59.1,45.9,66.6,57.8,45.3,100,95,81,29.87,29.64,10,2,17,0.43
2013-5-25,46.4,43.8,35.7,46.1,43.2,34.7,100,98,93,29.86,29.76,16,2,16,0.40
2013-5-26,54.7,44.8,36.3,44.1,39.7,35.5,99,83,61,30.09,29.73,22,3,22,0.11
2013-5-27,66.8,54.5,39.4,46.5,40.1,36.0,96,63,34,30.20,30.09,13,1,13,0.00
2013-5-28,72.0,58.7,44.8,49.4,43.9,38.0,88,61,36,30.27,30.17,13,0,13,0.00
2013-5-29,62.0,57.8,53.4,61.4,56.7,48.6,100,96,82,30.18,29.99,6,0,6,0.23
2013-5-30,83.6,71.7,58.8,69.9,64.4,58.7,100,80,51,30.08,30.01,12,0,12,0.01
2013-5-31,90.0,78.4,66.9,70.8,65.9,63.3,91,68,45,30.09,29.93,9,0,9,0.00
2013-6-1,91.6,79.2,67.7,73.0,67.5,63.7,92,70,40,29.95,29.83,12,0,12,0.00
2013-6-2,89.7,76.1,66.5,73.7,68.0,65.1,99,78,48,29.84,29.67,20,1,20,0.55
2013-6-3,76.0,67.2,57.6,67.7,60.9,48.6,99,82,50,29.84,29.75,12,1,12,0.07
2013-6-4,65.8,57.9,48.3,49.3,45.7,40.9,80,65,50,30.11,29.83,17,1,17,0.00
2013-6-5,72.1,60.9,49.7,51.5,46.7,40.3,87,63,33,30.21,30.10,10,0,10,0.00
2013-6-6,71.3,61.4,53.8,58.5,51.1,43.2,92,70,48,30.21,30.11,12,0,12,0.01
2013-6-7,55.7,52.1,49.4,53.8,51.3,48.4,99,97,92,30.12,29.88,4,0,6,0.92
2013-6-8,72.7,60.3,50.6,64.5,57.5,50.3,100,91,70,30.02,29.69,11,1,14,0.79
2013-6-9,75.2,65.2,55.4,61.8,57.2,54.1,99,78,53,30.18,30.01,5,0,15,0.00
2013-6-10,69.8,61.6,56.6,61.2,57.3,53.9,98,86,70,30.22,30.03,9,0,9,0.25
2013-6-11,58.9,55.8,53.6,58.1,55.3,53.3,99,98,95,30.03,29.60,8,0,9,0.87
2013-6-12,65.5,59.0,54.3,58.2,55.5,54.0,100,89,70,29.84,29.58,19,1,19,0.01
2013-6-13,65.0,57.3,53.2,58.8,54.6,51.5,99,91,72,29.83,29.73,14,0,14,0.22
2013-6-14,72.2,60.5,51.3,61.0,55.5,51.0,99,85,55,29.80,29.69,10,0,10,0.21
2013-6-15,74.7,64.2,53.0,55.7,50.7,45.4,91,65,38,29.94,29.80,13,0,13,0.00
2013-6-16,74.0,64.7,56.2,62.0,55.7,48.0,90,73,51,29.94,29.71,11,1,11,0.00
2013-6-17,79.5,65.6,58.4,69.8,61.1,56.7,100,87,55,29.90,29.77,20,0,21,0.21
2013-6-18,62.9,59.1,56.5,60.5,57.8,55.7,99,96,88,29.99,29.89,8,0,8,0.02
2013-6-19,72.2,61.4,51.2,57.8,51.9,46.3,99,74,43,30.16,29.95,9,0,9,0.00
2013-6-20,76.1,64.3,51.4,56.4,50.6,46.4,87,63,41,30.28,30.16,11,1,11,0.00
2013-6-21,80.7,69.7,57.4,62.5,56.7,46.4,94,66,38,30.25,30.20,7,0,7,0.00
2013-6-22,82.1,71.5,61.3,68.6,62.4,55.1,88,73,58,30.22,30.10,9,0,9,0.00
2013-6-23,86.5,74.4,64.5,75.7,68.5,62.4,96,83,63,30.14,29.96,11,0,11,0.02
2013-6-24,89.7,76.6,68.0,74.3,70.2,67.2,98,83,53,29.99,29.87,10,0,18,0.43
2013-6-25,86.2,74.8,67.4,75.6,69.6,65.8,98,85,63,29.93,29.73,9,0,9,0.29
2013-6-26,76.9,68.9,65.3,73.4,68.3,64.7,100,98,85,29.86,29.72,3,0,6,0.72
2013-6-27,69.5,64.2,60.1,68.1,63.8,60.1,100,99,94,29.87,29.78,10,0,10,0.02
2013-6-28,70.0,62.8,55.5,70.0,62.8,55.2,100,100,99,29.78,29.50,10,0,10,0.49
2013-6-29,81.4,72.9,65.9,73.0,69.2,65.9,100,89,69,29.70,29.51,14,1,17,0.00
2013-6-30,83.3,72.6,65.7,75.0,69.4,65.4,100,90,68,29.93,29.70,12,0,12,0.21
2013-7-1,75.0,71.0,68.2,73.1,70.7,68.1,100,99,92,30.07,29.92,5,0,5,0.60
2013-7-2,76.2,68.2,61.2,75.8,68.0,61.2,100,100,94,30.24,30.06,11,0,11,0.19
2013-7-3,83.4,70.8,60.7,77.0,68.5,60.7,100,93,76,30.22,30.12,7,0,7,0.06
2013-7-4,88.5,79.3,70.5,77.9,73.8,70.5,100,85,64,30.20,30.07,7,0,7,0.00
2013-7-5,89.6,80.5,73.2,77.9,74.2,71.7,96,82,61,30.15,30.02,7,0,7,0.00
2013-7-6,83.9,77.0,73.5,73.9,71.6,65.2,95,84,65,30.07,29.97,9,0,10,0.00
2013-7-7,86.7,79.3,75.3,76.8,72.0,67.5,97,79,57,30.06,29.90,4,0,4,0.10
2013-7-8,82.8,65.4,0.0,76.1,63.7,0.0,97,80,77,30.09,29.90,7,0,7,0.01
2013-7-9,67.0,6.5,0.0,66.5,6.5,-0.4,99,10,98,30.14,30.06,3,0,3,0.00
2013-7-10,77.7,69.1,64.1,75.1,68.8,64.1,100,99,89,30.09,29.79,10,0,10,0.34
2013-7-11,79.6,72.8,66.6,75.1,71.1,63.8,100,95,79,29.97,29.75,7,0,7,0.01
2013-7-12,77.1,69.0,63.1,67.3,62.9,58.1,96,82,62,30.23,29.97,7,0,7,0.00
2013-7-13,77.3,69.7,61.5,71.5,65.0,57.5,98,85,70,30.33,30.22,6,0,6,0.00
2013-7-14,86.2,76.3,68.0,75.8,71.7,67.7,100,87,68,30.31,30.21,9,0,9,0.00
2013-7-15,88.4,78.3,70.2,76.1,71.2,68.2,95,80,59,30.22,30.10,6,0,6,0.00
2013-7-16,90.0,78.9,71.3,75.0,70.5,66.3,89,77,53,30.17,30.13,11,0,11,0.00
2013-7-17,90.2,79.8,69.9,76.1,71.9,67.4,93,78,57,30.19,29.99,5,0,5,0.00
2013-7-18,90.1,79.2,71.5,77.0,73.3,70.9,99,84,59,30.02,29.93,3,0,9,0.42
2013-7-19,89.7,80.0,70.3,79.4,74.6,68.9,100,85,63,29.94,29.69,19,0,19,0.00
2013-7-20,85.8,76.7,69.5,75.0,69.6,65.3,90,79,63,29.81,29.65,11,0,19,0.00
2013-7-21,78.4,70.8,64.8,69.9,65.2,62.7,95,83,66,29.97,29.81,10,0,10,0.00
2013-7-23,72.5,67.8,64.2,71.8,67.5,63.9,100,99,96,29.77,29.56,3,0,4,1.86
2013-7-24,80.8,70.1,56.3,71.7,65.0,51.3,100,85,65,30.00,29.59,14,0,14,0.00
2013-7-25,71.2,60.8,52.4,60.5,55.2,49.0,92,82,65,30.13,30.00,4,0,6,0.00
2013-7-26,70.8,63.8,60.3,68.1,62.5,57.7,100,96,85,30.10,29.95,6,0,9,0.41
2013-7-27,81.4,69.3,58.2,68.3,62.5,57.6,99,81,54,30.06,29.99,6,0,6,0.00
2013-7-28,78.7,68.8,62.9,71.8,66.2,62.0,99,92,73,30.03,29.98,10,0,10,0.08
2013-7-29,81.6,70.2,64.4,72.9,67.4,64.1,100,92,70,30.06,29.95,10,0,11,0.01
2013-7-30,78.0,68.4,59.7,65.2,59.9,56.5,97,76,53,30.11,30.04,10,0,10,0.00
2013-7-31,79.7,69.1,59.5,65.3,61.3,57.8,95,78,52,30.15,30.04,6,0,6,0.00
2013-8-1,79.5,68.4,61.3,67.1,63.2,59.6,98,84,58,30.05,29.87,11,1,13,0.22
2013-8-2,78.9,69.1,62.8,70.5,62.9,57.2,100,83,49,29.87,29.79,8,0,11,0.63
2013-8-3,76.6,67.9,61.0,64.8,59.8,56.2,94,76,54,29.86,29.77,14,0,14,0.00
2013-8-4,74.5,64.9,57.8,62.5,57.5,52.8,91,78,58,29.90,29.80,11,0,11,0.00
2013-8-5,70.8,61.6,54.4,53.5,48.8,39.7,92,66,35,30.06,29.90,15,1,19,0.00
2013-8-6,76.1,64.1,53.3,59.0,53.1,47.7,86,69,48,30.16,30.06,7,0,7,0.00
2013-8-7,77.3,66.6,56.6,63.5,57.3,53.1,92,74,47,30.19,30.10,14,1,14,0.00
2013-8-8,79.8,70.8,63.0,72.0,66.3,58.2,95,86,72,30.11,30.00,12,2,12,0.00
2013-8-9,72.2,70.7,68.5,72.2,70.2,68.5,100,98,94,30.01,29.73,15,2,15,0.75
2013-8-10,78.5,69.4,59.7,68.6,60.8,50.7,100,77,43,30.03,29.78,13,0,13,0.00
2013-8-11,76.4,65.1,55.0,60.6,55.9,51.5,90,74,49,30.10,30.01,6,0,6,0.00
2013-8-12,78.7,67.7,59.0,64.7,59.1,54.8,89,75,52,30.03,29.92,6,0,6,0.00
2013-8-13,70.4,66.9,63.4,67.7,64.3,58.8,97,92,78,29.92,29.69,15,0,15,0.00
2013-8-14,71.0,63.4,56.3,64.3,55.7,51.0,99,77,57,29.97,29.67,15,1,15,0.00
2013-8-15,73.3,62.2,53.2,57.6,53.5,49.9,90,74,51,30.12,29.96,9,0,9,0.00
2013-8-16,76.8,65.0,54.9,60.6,56.0,51.4,89,74,52,30.20,30.10,6,0,6,0.00
2013-8-17,79.3,67.5,57.1,62.8,58.4,54.3,92,75,46,30.29,30.19,6,0,6,0.00
2013-8-18,78.0,67.1,58.5,67.1,61.4,57.1,96,83,61,30.28,30.08,6,0,6,0.00
2013-8-19,77.4,68.4,59.3,66.7,61.9,57.3,94,81,59,30.08,29.95,7,0,7,0.00
2013-8-20,83.0,71.9,63.4,68.8,63.5,60.7,92,76,52,30.10,29.99,5,0,5,0.00
2013-8-21,85.8,73.7,64.6,69.4,65.2,61.3,90,76,54,30.16,30.01,8,0,8,0.00
2013-8-22,85.5,74.1,64.4,71.0,67.0,62.3,97,80,52,30.03,29.82,11,0,11,0.04
2013-8-23,78.7,68.0,58.2,67.8,59.5,51.2,98,77,48,30.16,29.82,13,0,13,0.01
2013-8-24,75.8,63.5,53.1,56.7,52.2,48.3,89,69,42,30.34,30.16,7,0,7,0.00
2013-8-25,80.3,67.0,54.6,62.2,56.0,49.4,88,69,42,30.39,30.16,6,0,6,0.00
2013-8-26,77.5,68.9,60.7,69.2,64.6,58.3,97,87,72,30.17,29.86,9,0,9,0.06
2013-8-27,83.0,73.5,66.9,71.3,68.1,65.7,98,84,61,29.91,29.84,4,0,4,0.00
2013-8-28,86.2,72.7,64.6,72.2,67.6,64.0,99,85,60,30.00,29.85,7,0,7,0.19
2013-8-29,64.8,63.0,60.1,64.5,62.3,59.5,100,98,93,30.10,29.96,6,0,6,0.19
2013-8-30,81.3,69.1,58.4,71.0,65.0,57.9,100,88,65,30.04,29.80,7,0,7,0.00
2013-8-31,78.4,72.0,67.7,74.9,70.3,66.9,99,94,88,29.84,29.76,6,0,7,0.01
2013-9-1,82.8,73.0,67.3,74.3,70.4,66.9,99,92,70,29.89,29.78,10,0,10,1.91
2013-9-2,73.2,69.7,66.0,73.2,69.7,66.0,100,100,99,29.87,29.72,12,0,12,1.88
2013-9-3,75.1,67.2,60.7,72.3,65.5,58.4,100,94,81,29.81,29.71,4,0,4,0.01
2013-9-4,76.7,65.9,57.2,62.5,59.0,55.8,98,80,52,29.91,29.81,7,0,7,0.00
2013-9-5,68.3,60.5,49.2,58.0,51.7,42.6,93,74,47,30.18,29.86,13,0,13,0.00
2013-9-6,67.0,55.5,45.3,51.1,45.4,41.4,87,71,44,30.27,30.08,6,0,6,0.00
2013-9-7,77.3,62.3,51.5,61.1,52.6,45.9,88,72,42,30.08,29.84,9,0,9,0.01
2013-9-8,67.8,59.9,48.9,60.2,50.9,43.1,88,73,50,30.11,29.76,16,1,16,0.00
2013-9-9,68.3,55.8,44.7,53.9,46.9,41.2,88,73,49,30.26,30.09,8,0,8,0.00
2013-9-10,72.3,63.3,53.7,69.8,61.5,49.6,99,94,85,30.14,30.02,13,1,13,0.04
2013-9-11,91.0,77.5,67.7,79.0,72.9,67.0,100,87,62,30.07,29.88,20,0,20,0.05
2013-9-12,79.7,69.7,65.3,74.4,68.5,65.2,100,96,82,29.93,29.65,11,0,11,1.81
2013-9-13,72.7,64.4,55.6,70.0,62.7,53.2,100,94,78,29.78,29.60,10,0,10,0.05
2013-9-14,64.7,56.6,51.9,57.1,53.0,50.6,96,88,71,30.06,29.77,10,0,10,0.00
2013-9-15,69.0,57.1,48.0,55.9,51.7,46.9,100,84,58,30.17,30.03,7,0,7,0.00
2013-9-16,63.4,55.3,42.2,56.1,50.1,37.5,94,83,67,30.29,30.00,13,1,13,0.00
2013-9-17,62.4,49.9,38.9,49.8,42.2,36.4,92,76,50,30.46,30.29,9,0,9,0.00
2013-9-18,71.8,57.8,46.4,53.7,48.0,43.4,90,72,44,30.34,30.14,5,0,5,0.00
2013-9-19,77.0,62.7,51.9,59.3,53.1,48.2,89,73,42,30.15,30.05,5,0,5,0.00
2013-9-20,77.3,63.5,52.1,62.3,56.7,50.6,96,80,54,30.12,30.00,9,0,9,0.00
2013-9-21,73.3,62.0,51.0,64.0,58.5,50.5,100,89,65,30.02,29.70,19,2,19,0.00
2013-9-22,67.8,61.1,48.3,65.7,56.5,44.1,99,86,60,29.85,29.59,17,1,17,0.75
2013-9-23,58.1,49.4,43.4,46.5,42.6,39.9,90,78,60,30.02,29.85,7,1,14,0.00
2013-9-24,63.2,51.3,43.2,48.6,43.8,40.3,92,77,52,30.00,29.84,16,1,16,0.00
2013-9-25,67.0,55.2,47.2,55.2,49.3,44.7,93,81,60,30.01,29.89,7,0,7,0.00
2013-9-26,67.5,56.2,46.5,54.2,50.1,45.0,96,81,56,30.16,30.00,6,0,6,0.00
2013-9-27,67.2,57.6,52.7,57.1,53.0,50.7,94,85,62,30.29,30.15,7,0,7,0.00
2013-9-28,73.4,59.4,50.1,61.0,53.5,49.0,97,82,54,30.37,30.27,6,0,6,0.00
2013-9-29,69.8,56.7,48.7,56.7,51.3,47.9,100,84,53,30.28,30.13,7,0,8,0.00
2013-9-30,70.9,55.8,43.8,57.2,50.9,43.0,99,85,57,30.14,29.98,5,0,5,0.00
2013-10-1,76.8,61.4,49.9,60.3,54.5,48.4,97,81,47,30.00,29.86,10,0,10,0.00
2013-10-2,77.9,65.8,55.5,63.6,58.5,52.0,92,78,57,29.95,29.83,13,0,13,0.00
2013-10-3,76.1,63.6,55.1,57.7,52.9,49.2,87,70,42,30.11,29.94,7,0,7,0.00
2013-10-4,64.2,58.3,53.7,58.6,54.1,50.5,93,86,74,30.11,30.05,6,0,6,0.00
2013-10-5,63.6,59.4,56.0,56.7,54.9,50.2,96,85,73,30.14,30.07,4,0,4,0.00
2013-10-6,58.9,52.1,48.1,57.1,51.3,47.3,99,97,92,30.28,30.13,5,0,5,0.30
2013-10-7,71.2,59.1,52.5,69.6,58.5,52.2,100,98,89,30.17,29.76,16,1,27,0.74
2013-10-8,63.1,53.7,46.0,52.8,44.8,38.9,93,74,44,30.41,29.90,15,1,15,0.01
2013-10-9,63.2,49.2,38.5,47.1,42.4,36.9,95,79,50,30.52,30.39,6,0,6,0.00
2013-10-10,59.0,49.8,40.9,48.9,45.2,40.1,98,85,59,30.40,30.21,5,0,5,0.00
2013-10-11,68.2,55.6,46.6,56.8,49.6,45.5,97,81,52,30.21,30.14,6,0,6,0.00
2013-10-12,54.2,51.2,47.2,53.1,49.9,45.5,98,95,88,30.43,30.19,5,0,5,0.00
2013-10-13,58.2,49.8,42.8,52.5,46.7,42.3,99,90,70,30.49,30.41,7,0,7,0.00
2013-10-14,56.4,53.3,45.9,48.8,46.7,44.5,96,79,68,30.41,30.26,3,0,3,0.00
2013-10-15,63.5,56.6,52.3,56.1,52.8,48.1,97,87,76,30.30,30.20,7,0,7,0.00
2013-10-16,64.1,53.7,50.0,53.2,50.7,48.2,99,90,60,30.20,29.92,7,0,7,0.00
2013-10-17,73.0,59.2,49.2,60.2,50.6,46.1,99,76,42,29.92,29.70,10,0,10,0.00
2013-10-18,64.5,56.6,48.0,58.7,50.0,38.8,99,80,59,29.91,29.59,14,2,14,0.18
2013-10-19,66.6,54.1,41.7,48.5,43.5,38.5,90,69,47,29.98,29.74,13,1,13,0.00
2013-10-20,60.1,51.5,45.0,48.7,41.2,34.8,96,70,45,30.02,29.69,18,2,18,0.00
2013-10-21,65.5,52.0,39.7,45.5,40.9,36.2,89,68,44,30.13,29.97,12,1,12,0.00
2013-10-22,58.4,50.5,42.5,51.3,45.1,35.3,96,82,70,29.97,29.73,12,1,12,0.00
2013-10-23,54.2,44.7,37.5,37.2,34.1,31.9,83,67,45,29.81,29.60,11,0,11,0.00
2013-10-24,49.8,43.0,36.3,37.6,32.8,29.5,89,68,50,29.90,29.66,25,2,25,0.00
2013-10-25,48.1,40.0,33.8,35.7,30.5,27.0,90,70,48,30.15,29.89,16,2,16,0.00
2013-10-26,50.1,42.0,32.4,35.8,31.2,27.6,91,67,46,30.16,29.86,23,2,23,0.00
2013-10-27,53.4,45.2,36.9,38.0,33.5,28.2,81,64,46,30.07,29.79,17,2,17,0.00
2013-10-28,53.5,41.4,31.9,38.4,32.0,23.4,87,70,51,30.37,30.06,19,2,19,0.00
2013-10-29,47.8,36.4,29.1,27.2,22.2,17.1,77,58,36,30.49,30.36,8,0,8,0.00
2013-10-30,48.9,39.0,31.9,38.8,30.6,19.1,88,72,55,30.38,30.22,6,0,6,0.00
2013-10-31,58.1,45.6,35.5,57.7,44.1,33.5,99,94,85,30.26,29.76,17,2,17,0.09
2013-11-1,66.7,61.1,55.1,62.3,56.9,46.2,99,87,72,29.76,29.40,32,6,32,0.21
2013-11-2,64.2,53.3,45.4,47.6,44.7,41.8,95,74,48,29.76,29.60,13,1,13,0.01
2013-11-3,45.9,37.0,27.5,44.0,26.0,16.6,93,66,39,30.46,29.76,17,2,17,0.00
2013-11-4,42.1,32.3,24.9,22.8,18.8,15.6,74,58,38,30.73,30.46,10,1,10,0.00
2013-11-5,48.2,37.2,26.6,35.3,27.1,19.6,81,67,51,30.74,30.51,12,1,12,0.00
2013-11-6,59.2,48.4,38.1,47.3,41.2,32.2,90,77,59,30.51,30.00,19,2,19,0.00
2013-11-7,59.7,51.7,39.7,57.1,47.5,35.3,96,85,78,30.01,29.69,19,4,19,0.03
2013-11-8,44.2,36.3,30.0,35.8,28.6,24.1,90,74,59,30.08,29.82,16,2,16,0.00
2013-11-9,42.3,37.0,30.5,29.5,25.4,22.2,75,63,50,30.22,30.04,15,2,15,0.00
2013-11-10,46.0,40.0,34.6,40.8,35.7,29.4,96,85,74,30.04,29.75,14,2,20,0.03
2013-11-11,49.9,41.9,36.8,33.2,29.3,26.0,76,62,42,30.11,29.85,20,3,20,0.00
2013-11-13,34.3,27.9,20.5,17.3,14.9,12.5,77,58,47,30.32,30.13,15,2,15,0.00
2013-11-14,49.2,37.9,26.5,31.7,24.7,17.4,71,59,49,30.13,30.05,15,2,15,0.00
2013-11-15,55.8,43.8,33.4,25.4,21.7,18.1,57,42,25,30.20,30.11,11,1,11,0.00
2013-11-16,59.1,47.3,39.3,32.5,28.2,22.8,63,48,31,30.33,30.17,6,0,6,0.00
2013-11-17,50.2,40.6,35.4,49.8,37.6,29.0,99,89,63,30.34,29.86,6,0,6,0.06
2013-11-18,62.3,53.5,43.5,56.8,45.9,33.3,100,77,45,29.87,29.52,21,3,21,0.30
2013-11-19,44.7,35.6,29.0,33.7,23.0,16.9,72,60,49,30.33,29.64,23,5,23,0.00
2013-11-20,40.1,30.9,25.6,19.5,17.0,14.1,71,57,36,30.66,30.33,16,2,16,0.00
2013-11-21,45.4,33.9,23.6,26.6,17.0,12.8,75,52,28,30.67,30.48,12,1,12,0.00
2013-11-22,42.1,38.6,37.3,41.8,37.7,35.3,99,97,90,30.26,29.81,5,0,5,0.14
2013-11-23,43.1,36.2,26.6,42.8,26.8,14.5,99,70,45,29.94,29.77,21,3,21,0.00
2013-11-24,26.5,20.4,16.7,20.5,7.3,-0.6,92,58,42,30.19,29.79,26,7,35,0.00
2013-11-25,30.1,22.1,13.8,16.1,5.4,-2.2,64,48,31,30.39,30.18,23,3,23,0.00
2013-11-26,34.5,31.2,27.0,31.9,24.8,15.3,96,78,57,30.35,30.08,15,1,15,0.01
2013-11-27,52.1,42.6,32.9,51.7,42.0,30.9,99,98,88,30.10,29.26,28,3,28,1.50
2013-11-28,34.4,27.4,19.6,31.0,16.5,8.6,88,64,44,30.45,29.43,24,4,24,0.00
2013-11-29,29.1,20.8,15.2,13.8,9.5,5.0,79,63,37,30.78,30.45,18,1,18,0.00
2013-11-30,27.9,20.0,11.7,20.9,12.9,7.0,82,74,64,30.83,30.45,11,1,11,0.00
2013-12-1,34.7,31.6,27.8,32.6,28.8,20.9,97,90,75,30.45,30.06,12,0,12,0.07
2013-12-2,37.5,35.1,33.2,37.2,34.6,32.6,99,98,97,30.06,29.95,5,0,5,0.01
2013-12-3,48.2,36.7,30.7,42.3,33.6,29.2,99,89,61,29.97,29.88,10,1,10,0.00
2013-12-4,40.1,33.9,30.3,30.2,27.6,24.5,95,78,64,30.22,29.96,14,1,14,0.00
2013-12-5,38.9,34.3,31.7,38.4,32.0,26.8,99,92,77,30.24,29.92,4,0,4,0.02
2013-12-6,46.5,40.6,32.3,46.2,38.9,31.2,99,94,73,30.18,29.88,13,1,13,0.03
2013-12-7,34.4,30.4,23.7,31.3,25.8,17.5,97,83,64,30.46,30.09,18,1,18,0.00
2013-12-8,28.2,25.0,20.2,20.4,18.0,15.9,88,75,63,30.61,30.46,9,0,9,0.00
2013-12-9,31.7,27.4,23.3,30.4,25.1,16.8,97,91,69,30.53,29.90,6,0,6,0.00
2013-12-10,32.3,28.2,19.4,31.1,26.3,15.0,98,93,82,29.99,29.81,12,1,12,0.00
2013-12-11,29.8,22.9,17.0,19.2,16.3,14.3,94,76,58,30.20,29.99,18,2,18,0.05
2013-12-12,22.4,17.0,12.7,18.6,7.5,-0.1,91,68,43,30.28,30.05,17,2,17,0.00
2013-12-13,25.6,16.0,6.0,19.7,9.0,-1.6,84,74,56,30.44,29.98,17,3,17,0.00
2013-12-14,13.6,8.5,2.8,9.8,1.1,-4.1,90,72,52,30.66,30.24,11,0,11,0.00
2013-12-15,27.4,19.6,11.9,25.9,17.3,9.5,95,91,85,30.25,29.49,17,2,17,0.00
2013-12-16,26.0,18.9,6.7,18.5,10.0,-0.7,96,69,43,30.23,29.73,20,3,20,0.02
2013-12-17,13.2,7.3,-1.2,11.0,2.3,-6.4,91,80,58,30.31,30.03,11,1,11,0.00
2013-12-18,31.6,22.9,13.1,22.4,18.3,11.0,92,83,66,30.06,29.93,15,2,15,0.18
2013-12-19,39.9,31.0,25.2,27.5,23.8,21.0,86,75,56,30.12,29.96,19,2,19,0.05
2013-12-20,43.9,38.2,32.5,37.3,31.7,27.2,85,77,70,30.14,29.92,15,1,15,0.31
2013-12-21,54.6,45.9,37.8,47.1,40.4,33.1,92,81,70,29.95,29.85,15,2,15,0.08
2013-12-22,48.8,36.2,31.6,46.9,35.5,31.0,98,97,90,30.07,29.82,10,0,10,0.11
2013-12-23,34.7,32.6,31.0,34.3,32.3,30.6,100,99,98,30.13,30.00,10,0,10,0.33
2013-12-24,33.8,28.3,19.7,33.8,21.6,9.9,100,76,59,30.23,30.07,19,2,19,0.00
2013-12-25,21.5,15.0,7.3,10.6,5.2,-0.4,82,65,49,30.58,30.22,17,2,17,0.00
2013-12-26,25.9,20.8,15.3,23.7,16.6,7.2,95,84,68,30.53,30.12,11,1,11,0.00
2013-12-27,32.3,26.2,19.9,23.0,21.1,18.0,94,81,65,30.27,30.20,14,2,14,0.01
2013-12-28,41.7,32.9,24.0,32.8,27.2,19.9,86,79,64,30.22,29.99,18,3,18,0.05
2013-12-29,39.0,34.9,32.5,33.1,31.1,28.8,98,86,74,30.03,29.52,7,0,7,0.39
2013-12-30,36.0,27.8,9.1,34.7,23.1,3.3,98,83,57,30.20,29.55,19,2,19,0.19
2013-12-31,20.4,13.0,3.9,13.9,5.4,-2.0,89,72,53,30.20,30.06,10,1,10,0.00
2014-1-1,23.5,16.4,12.0,11.6,9.2,6.8,84,73,58,30.41,30.18,17,2,17,0.00
2014-1-2,13.5,7.1,-1.0,9.6,3.8,-4.4,89,86,80,30.40,29.96,13,1,13,0.00